Chatawa, MS

4:25 PM CDT on August 28, 2016 (GMT -0500)
McComb-Pike County-Lewis

Weather History for KMCB - March, 2012

Change the Weather History Date:

Saturday, March 10, 2012

  Actual Average Record
Temperature  
Mean Temperature 58 °F -  
Max Temperature 68 °F 72 °F 84 °F (1985)
Min Temperature 48 °F 45 °F 29 °F (1969)
Degree Days  
Heating Degree Days 7    
Growing Degree Days 8 (Base 50)    
Moisture  
Dew Point 39 °F    
Average Humidity 52    
Maximum Humidity 87    
Minimum Humidity 28    
Precipitation  
Precipitation 0.00 in - - ()
Sea Level Pressure  
Sea Level Pressure 30.26 in    
Wind  
Wind Speed 5 mph (ENE)    
Max Wind Speed 10 mph    
Max Gust Speed 17 mph    
Visibility 10 miles    
Events      
Averages and records for this station are not official NWS values.
T = Trace of Precipitation, MM = Missing Value Source: NWS Daily Summary

Daily Weather History Graph

Daily Weather History Graph

Search for Another Location

Airport or City:

Trip Planner

Search our weather history database for the weather conditions in past years. The results will help you decide how hot, cold, wet, or windy it might be!

Date:

Astronomy

Mar. 10, 2012 Rise Set
Actual Time 6:17 AM CST 6:06 PM CST
Civil Twilight 5:53 AM CST 6:31 PM CST
Nautical Twilight 5:25 AM CST 6:59 PM CST
Astronomical Twilight 4:57 AM CST 7:27 PM CST
Moon 9:02 PM CST (3/10) 7:27 AM CST (3/10)
Length of Visible Light 12h 37m
Length of Day
11h 49m
Waning Gibbous, 92% of the Moon is Illuminated
Mar 10
Waning Gibbous
Mar 14
Last Quarter
Mar 22
New
Mar 30
First Quarter
Apr 6
Full

Hourly Weather History & Observations

Time (CST) Temp. Dew Point Humidity Pressure Visibility Wind Dir Wind Speed Gust Speed Precip Events Conditions
12:53 AM 52.0 °F 37.0 °F 57% 30.30 in 10.0 mi NNE 3.5 mph - N/A   Clear
1:53 AM 51.1 °F 36.0 °F 56% 30.28 in 10.0 mi NE 5.8 mph - N/A   Clear
2:53 AM 50.0 °F 36.0 °F 59% 30.27 in 10.0 mi Variable 3.5 mph - N/A   Clear
3:53 AM 50.0 °F 35.1 °F 57% 30.27 in 10.0 mi NE 4.6 mph - N/A   Clear
4:53 AM 48.9 °F 34.0 °F 56% 30.27 in 10.0 mi ENE 5.8 mph - N/A   Clear
5:53 AM 48.9 °F 33.1 °F 54% 30.30 in 10.0 mi East 5.8 mph - N/A   Clear
6:53 AM 48.0 °F 34.0 °F 58% 30.32 in 10.0 mi Variable 3.5 mph - N/A   Clear
7:53 AM 50.0 °F 34.0 °F 54% 30.33 in 10.0 mi NE 4.6 mph - N/A   Clear
8:53 AM 53.1 °F 34.0 °F 48% 30.32 in 10.0 mi ENE 9.2 mph 17.3 mph N/A   Clear
9:53 AM 57.0 °F 34.0 °F 42% 30.32 in 10.0 mi ENE 10.4 mph - N/A   Clear
10:53 AM 60.1 °F 35.1 °F 39% 30.30 in 10.0 mi Variable 4.6 mph - N/A   Clear
11:53 AM 64.0 °F 35.1 °F 34% 30.28 in 10.0 mi North 5.8 mph - N/A   Clear
12:53 PM 66.9 °F 33.1 °F 28% 30.24 in 10.0 mi ENE 6.9 mph - N/A   Clear
1:53 PM 68.0 °F 35.1 °F 30% 30.21 in 10.0 mi Variable 6.9 mph - N/A   Clear
2:53 PM 66.9 °F 39.0 °F 36% 30.19 in 10.0 mi Variable 4.6 mph - N/A   Clear
3:53 PM 66.9 °F 37.9 °F 34% 30.19 in 10.0 mi ESE 5.8 mph - N/A   Clear
4:53 PM 64.9 °F 41.0 °F 42% 30.20 in 10.0 mi ESE 3.5 mph - N/A   Clear
5:53 PM 63.0 °F 46.9 °F 56% 30.21 in 10.0 mi Calm Calm - N/A   Clear
6:53 PM 60.1 °F 48.0 °F 64% 30.22 in 10.0 mi Calm Calm - N/A   Clear
7:53 PM 57.0 °F 48.0 °F 72% 30.23 in 10.0 mi Calm Calm - N/A   Scattered Clouds
8:53 PM 59.0 °F 46.9 °F 64% 30.23 in 10.0 mi Calm Calm - N/A   Mostly Cloudy
9:53 PM 57.0 °F 48.0 °F 72% 30.22 in 10.0 mi ESE 3.5 mph - N/A   Clear
11:53 PM 57.9 °F 54.0 °F 87% 30.20 in 10.0 mi ESE 4.6 mph - N/A   Clear